カタログに戻る

STARLINK-38129

運用中通信SSO
NORAD 100268·PAYLOAD·🇺🇸 United States

打ち上げ Aug 8, 2026 から Vandenberg Space Force Base

Loading…

次のパス (今後24時間)

TLE

最新Source: Space-Track

元期: Sep 14, 2026, 02:49 UTC

1 A0268U 26181Y   26257.11804474  .00073043  00000-0  48561-3 0  9999
2 A0268  97.2837 300.3664 0001937  68.9934 291.1538 15.75226730  6941

AllMySatでSTARLINK-38129をリアルタイム追跡

Download on the App Store